Regional Weather Roundup
Issued by NWS Northern Indiana

Home | Current Version | Previous Version | Graphics & Text | Print | Product List | Glossary On
Versions: 1 2 3 4 5 6 7 8 9 10 11 12 13 14 15 16 17 18 19 20 21 22 23 24 25 26 27 28 29 30 31 32 33 34 35 36 37 38 39 40 41 42 43 44 45 46 47 48 49 50
000
ASUS43 KIWX 280510
RWRIWX

KIWX WEATHER ROUNDUP
NATIONAL WEATHER SERVICE NORTHERN INDIANA
100 AM EDT WED SEP 28 2016

NOTE: "FAIR" INDICATES FEW OR NO CLOUDS BELOW 12,000 FEET WITH NO
SIGNIFICANT WEATHER AND/OR OBSTRUCTIONS TO VISIBILITY.

* THESE STATIONS ARE NOT UNDER NWS QUALITY CONTROL. THEY ALSO MAY NOT
  REPORT WEATHER SUCH AS PRECIPITATION OR FOG.

INZ001>027-280600-
NORTHERN INDIANA

CITY           SKY/WX    TMP DP  RH WIND       PRES   REMARKS
GARY*          CLOUDY    54  46  74 S3        29.77F
VALPARAISO     MOCLDY    51  41  68 CALM      29.77F
MICHIGAN CITY* PTCLDY    52  46  82 MISG      29.79S
LAPORTE*       MOCLDY    52  48  86 CALM      29.78F
KNOX*          PTCLDY    46  32  57 SE3       29.77F
SOUTH BEND     PTCLDY    54  47  77 E3        29.79F
GOSHEN         MOCLDY    51  43  74 E7        29.79F
MONTICELLO*    PTCLDY    50  38  65 CALM      29.78S
LOGANSPORT*    PTCLDY    46  41  81 SE3       29.80F
ROCHESTER*     PTCLDY    50  45  81 E3        29.79S
WARSAW*        PTCLDY    46  36  66 CALM      29.79F
ANGOLA*          N/A     46  34  61 CALM      29.81S
FORT WAYNE     MOCLDY    50  43  77 S5        29.81F
HUNTINGTON*    PTCLDY    50  45  83 CALM      29.81S
PERU/GRISSOM   PTCLDY    51  42  73 S5        29.78F
MARION*        PTCLDY    49  43  79 CALM      29.82S HAZE

$$
INZ028>050-280600-
CENTRAL INDIANA

CITY           SKY/WX    TMP DP  RH WIND       PRES   REMARKS
LAFAYETTE      PTCLDY    50  45  83 CALM      29.79F
MUNCIE*        PTCLDY    59  48  67 S6        29.82F
INDIANAPOLIS   MOCLDY    59  50  72 SW6       29.81F

$$
MIZ043>046-050>051-056>058-064>065-071>073-077>080-280600-
SOUTHWEST LOWER MICHIGAN

CITY           SKY/WX    TMP DP  RH WIND       PRES   REMARKS
BATTLE CREEK   PTCLDY    55  48  77 E5        29.80F
BENTON HARBOR  CLOUDY    53  48  83 E5        29.79R
COLDWATER*     MOCLDY    52  46  79 E7        29.81S
HILLSDALE*     PTCLDY    46  43  87 NE3       29.81F
HOLLAND        CLOUDY    54  51  90 CALM      29.79S
GRAND RAPIDS   CLOUDY    53  49  86 S6        29.79S
KALAMAZOO      PTCLDY    53  47  79 SE3       29.80F
STURGIS*       CLOUDY    53  46  75 E7        29.79S
THREE RIVERS*  FAIR      53  48  84 E3        29.80F

$$
OHZ001>008-015>018-024>025-280600-
NORTHWEST OHIO

CITY           SKY/WX    TMP DP  RH WIND       PRES   REMARKS
WAUSEON*       FAIR      46  41  81 CALM      29.81S
DEFIANCE       MOCLDY    49  44  83 CALM      29.82S
FINDLAY        MOCLDY    53  44  71 S5        29.82S
TOLEDO EXPRESS PTCLDY    46  46 100 CALM      29.81S
TOLEDO METCALF PTCLDY    50  44  80 CALM      29.83S
LIMA           PTCLDY    56  49  77 S7        29.82F

$$
AND FOR LAKE MICHIGAN COASTAL AND OPEN LAKE BUOY OBSERVATIONS

STATION/POSITION TEMP    WIND        PRES    VSBY  WAVE
                 AIR SEA DIR/SP/G                  HT/PER
                 (F)     (DEG/KT/KT) (MB)    (MI)  (FT/S)
CALUMET HARBOR    61     350/  8/ 11 1007.9S
MICHIGAN CITY     57      60/  7/  7   N/A
BURNS HARBOR      58     170/  3/  8 1008.5F
SAINT JOSEPH      56      CALM  /  2 1008.8
SOUTH LAKE BUOY   57 70  290/ 14/ 19 1008.0R         2/ 5
4 MI NW BRIDGMAN  58 67   80/ 12/ 14 1008.5          2/ 5
MICHIGAN CITY     60 67  100/ 14/ 17   N/A           2/ 3

$$
&&



USA.gov is the U.S. government's official web portal to all federal, state and local government web resources and services.